Time,TemperatureF,DewpointF,PressureIn,WindDirection,WindDirectionDegrees,WindSpeedMPH,WindSpeedGustMPH,Humidity,HourlyPrecipIn,Conditions,Clouds,dailyrainin,SolarRadiationWatts/m^2,SoftwareType,DateUTC
2013-03-03 00:02:00,56.0,49.0,-100.00,SSW,203,2.0,5.0,76,0.00,,,0.00,0.000000,,2013-03-03 05:02:00,
2013-03-03 00:12:00,56.0,49.0,-100.00,SSW,203,2.0,5.0,76,0.00,,,0.00,0.000000,,2013-03-03 05:12:00,
2013-03-03 00:22:00,56.0,49.0,-100.00,SSW,203,2.0,5.0,76,0.00,,,0.00,0.000000,,2013-03-03 05:22:00,
2013-03-03 00:32:00,56.0,49.0,-100.00,SSW,203,2.0,5.0,76,0.00,,,0.00,0.000000,,2013-03-03 05:32:00,
2013-03-03 01:02:00,54.0,49.0,-100.00,East,97,2.0,3.0,83,0.00,,,0.00,0.000000,,2013-03-03 06:02:00,
2013-03-03 01:11:00,54.0,49.0,-100.00,East,97,2.0,3.0,83,0.00,,,0.00,0.000000,,2013-03-03 06:11:00,
2013-03-03 01:22:00,54.0,49.0,-100.00,East,97,2.0,3.0,83,0.00,,,0.00,0.000000,,2013-03-03 06:22:00,
2013-03-03 01:32:00,54.0,49.0,-100.00,East,97,2.0,3.0,83,0.00,,,0.00,0.000000,,2013-03-03 06:32:00,
2013-03-03 01:52:00,53.0,49.0,-100.00,East,96,1.0,3.0,86,0.00,,,0.00,0.000000,,2013-03-03 06:52:00,
2013-03-03 02:01:00,53.0,49.0,-100.00,East,96,1.0,3.0,86,0.00,,,0.00,0.000000,,2013-03-03 07:01:00,
2013-03-03 02:11:00,53.0,49.0,-100.00,East,96,1.0,3.0,86,0.00,,,0.00,0.000000,,2013-03-03 07:11:00,
2013-03-03 02:21:00,53.0,49.0,-100.00,East,96,1.0,3.0,86,0.00,,,0.00,0.000000,,2013-03-03 07:21:00,
2013-03-03 02:32:00,53.0,49.0,-100.00,East,96,1.0,3.0,86,0.00,,,0.00,0.000000,,2013-03-03 07:32:00,
2013-03-03 02:52:00,55.0,52.0,-100.00,SSW,207,2.0,3.0,91,0.00,,,0.00,0.000000,,2013-03-03 07:52:00,
2013-03-03 03:01:00,55.0,52.0,-100.00,SSW,207,2.0,3.0,91,0.00,,,0.00,0.000000,,2013-03-03 08:01:00,
2013-03-03 03:11:00,55.0,52.0,-100.00,SSW,207,2.0,3.0,91,0.00,,,0.00,0.000000,,2013-03-03 08:11:00,
2013-03-03 03:21:00,55.0,52.0,-100.00,SSW,207,2.0,3.0,91,0.00,,,0.00,0.000000,,2013-03-03 08:21:00,
2013-03-03 03:32:00,55.0,52.0,-100.00,SSW,207,2.0,3.0,91,0.00,,,0.00,0.000000,,2013-03-03 08:32:00,
2013-03-03 03:54:00,58.0,53.0,-100.00,WSW,244,5.0,11.0,82,0.00,,,0.00,0.000000,,2013-03-03 08:54:00,
2013-03-03 04:02:00,58.0,53.0,-100.00,WSW,244,5.0,11.0,82,0.00,,,0.00,0.000000,,2013-03-03 09:02:00,
2013-03-03 04:12:00,58.0,53.0,-100.00,WSW,244,5.0,11.0,82,0.00,,,0.00,0.000000,,2013-03-03 09:12:00,
2013-03-03 04:21:00,58.0,53.0,-100.00,WSW,244,5.0,11.0,82,0.00,,,0.00,0.000000,,2013-03-03 09:21:00,
2013-03-03 04:32:00,58.0,53.0,-100.00,WSW,244,5.0,11.0,82,0.00,,,0.00,0.000000,,2013-03-03 09:32:00,
2013-03-03 04:52:00,58.0,52.0,-100.00,WSW,241,4.0,9.0,79,0.00,,,0.00,0.000000,,2013-03-03 09:52:00,
2013-03-03 05:01:00,58.0,52.0,-100.00,WSW,241,4.0,9.0,79,0.00,,,0.00,0.000000,,2013-03-03 10:01:00,
2013-03-03 05:12:00,58.0,52.0,-100.00,WSW,241,4.0,9.0,79,0.00,,,0.00,0.000000,,2013-03-03 10:12:00,
2013-03-03 05:21:00,58.0,52.0,-100.00,WSW,241,4.0,9.0,79,0.00,,,0.00,0.000000,,2013-03-03 10:21:00,
2013-03-03 05:32:00,58.0,52.0,-100.00,WSW,241,4.0,9.0,79,0.00,,,0.00,0.000000,,2013-03-03 10:32:00,
2013-03-03 05:52:00,55.0,52.0,-100.00,NNE,26,9.0,21.0,91,0.12,,,0.12,0.000000,,2013-03-03 10:52:00,
2013-03-03 06:02:00,55.0,52.0,-100.00,NNE,26,9.0,21.0,91,0.12,,,0.12,0.000000,,2013-03-03 11:02:00,
2013-03-03 06:11:00,55.0,52.0,-100.00,NNE,26,9.0,21.0,91,0.12,,,0.12,0.000000,,2013-03-03 11:11:00,
2013-03-03 06:22:00,55.0,52.0,-100.00,NNE,26,9.0,21.0,91,0.12,,,0.12,0.000000,,2013-03-03 11:22:00,
2013-03-03 06:32:00,55.0,52.0,-100.00,NNE,26,9.0,21.0,91,0.12,,,0.12,0.000000,,2013-03-03 11:32:00,
2013-03-03 08:02:00,57.0,52.0,-100.00,NE,35,6.0,14.0,83,0.00,,,0.13,22.000000,,2013-03-03 13:02:00,
2013-03-03 08:11:00,57.0,52.0,-100.00,NE,35,6.0,14.0,83,0.00,,,0.13,22.000000,,2013-03-03 13:11:00,
2013-03-03 08:22:00,57.0,52.0,-100.00,NE,35,6.0,14.0,83,0.00,,,0.13,22.000000,,2013-03-03 13:22:00,
2013-03-03 08:32:00,57.0,52.0,-100.00,NE,35,6.0,14.0,83,0.00,,,0.13,22.000000,,2013-03-03 13:32:00,
2013-03-03 09:02:00,60.0,51.0,-100.00,NE,48,6.0,12.0,73,0.00,,,0.13,198.000000,,2013-03-03 14:02:00,
2013-03-03 09:11:00,60.0,51.0,-100.00,NE,48,6.0,12.0,73,0.00,,,0.13,198.000000,,2013-03-03 14:11:00,
2013-03-03 09:22:00,60.0,51.0,-100.00,NE,48,6.0,12.0,73,0.00,,,0.13,198.000000,,2013-03-03 14:22:00,
2013-03-03 09:32:00,60.0,51.0,-100.00,NE,48,6.0,12.0,73,0.00,,,0.13,198.000000,,2013-03-03 14:32:00,
2013-03-03 10:02:00,61.0,53.0,-100.00,East,80,4.0,8.0,75,0.00,,,0.13,223.000000,,2013-03-03 15:02:00,
2013-03-03 10:11:00,61.0,53.0,-100.00,East,80,4.0,8.0,75,0.00,,,0.13,223.000000,,2013-03-03 15:11:00,
2013-03-03 10:22:00,61.0,53.0,-100.00,East,80,4.0,8.0,75,0.00,,,0.13,223.000000,,2013-03-03 15:22:00,
2013-03-03 10:32:00,61.0,53.0,-100.00,East,80,4.0,8.0,75,0.00,,,0.13,223.000000,,2013-03-03 15:32:00,
2013-03-03 10:52:00,61.0,53.0,-100.00,North,354,3.0,9.0,76,0.00,,,0.13,220.000000,,2013-03-03 15:52:00,
2013-03-03 11:02:00,61.0,53.0,-100.00,North,354,3.0,9.0,76,0.00,,,0.13,220.000000,,2013-03-03 16:02:00,
2013-03-03 11:12:00,61.0,53.0,-100.00,North,354,3.0,9.0,76,0.00,,,0.13,220.000000,,2013-03-03 16:12:00,
2013-03-03 11:22:00,61.0,53.0,-100.00,North,354,3.0,9.0,76,0.00,,,0.13,220.000000,,2013-03-03 16:22:00,
2013-03-03 11:32:00,61.0,53.0,-100.00,North,354,3.0,9.0,76,0.00,,,0.13,220.000000,,2013-03-03 16:32:00,
2013-03-03 11:52:00,65.0,53.0,-100.00,East,101,3.0,6.0,66,0.00,,,0.13,472.000000,,2013-03-03 16:52:00,
2013-03-03 12:01:00,65.0,53.0,-100.00,East,101,3.0,6.0,66,0.00,,,0.13,472.000000,,2013-03-03 17:01:00,
2013-03-03 12:12:00,65.0,53.0,-100.00,East,101,3.0,6.0,66,0.00,,,0.13,472.000000,,2013-03-03 17:12:00,
2013-03-03 12:22:00,65.0,53.0,-100.00,East,101,3.0,6.0,66,0.00,,,0.13,472.000000,,2013-03-03 17:22:00,
2013-03-03 12:32:00,65.0,53.0,-100.00,East,101,3.0,6.0,66,0.00,,,0.13,472.000000,,2013-03-03 17:32:00,
2013-03-03 12:52:00,59.0,54.0,-100.00,North,8,10.0,17.0,82,0.16,,,0.29,296.000000,,2013-03-03 17:52:00,
2013-03-03 13:02:00,59.0,54.0,-100.00,North,8,10.0,17.0,82,0.16,,,0.29,296.000000,,2013-03-03 18:02:00,
2013-03-03 13:11:00,59.0,54.0,-100.00,North,8,10.0,17.0,82,0.16,,,0.29,296.000000,,2013-03-03 18:11:00,
2013-03-03 13:22:00,59.0,54.0,-100.00,North,8,10.0,17.0,82,0.16,,,0.29,296.000000,,2013-03-03 18:22:00,
2013-03-03 13:32:00,59.0,54.0,-100.00,North,8,10.0,17.0,82,0.16,,,0.29,296.000000,,2013-03-03 18:32:00,
2013-03-03 13:53:00,63.0,51.0,-100.00,North,3,10.0,17.0,66,0.00,,,0.29,738.000000,,2013-03-03 18:53:00,
2013-03-03 14:02:00,63.0,51.0,-100.00,North,3,10.0,17.0,66,0.00,,,0.29,738.000000,,2013-03-03 19:02:00,
2013-03-03 14:11:00,63.0,51.0,-100.00,North,3,10.0,17.0,66,0.00,,,0.29,738.000000,,2013-03-03 19:11:00,
2013-03-03 14:22:00,63.0,51.0,-100.00,North,3,10.0,17.0,66,0.00,,,0.29,738.000000,,2013-03-03 19:22:00,
2013-03-03 14:32:00,63.0,51.0,-100.00,North,3,10.0,17.0,66,0.00,,,0.29,738.000000,,2013-03-03 19:32:00,
2013-03-03 15:02:00,64.0,51.0,-100.00,North,351,10.0,17.0,63,0.00,,,0.29,655.000000,,2013-03-03 20:02:00,
2013-03-03 15:11:00,64.0,51.0,-100.00,North,351,10.0,17.0,63,0.00,,,0.29,655.000000,,2013-03-03 20:11:00,
2013-03-03 15:22:00,64.0,51.0,-100.00,North,351,10.0,17.0,63,0.00,,,0.29,655.000000,,2013-03-03 20:22:00,
2013-03-03 15:32:00,64.0,51.0,-100.00,North,351,10.0,17.0,63,0.00,,,0.29,655.000000,,2013-03-03 20:32:00,
2013-03-03 15:53:00,63.0,49.0,-100.00,NNW,335,10.0,20.0,61,0.00,,,0.29,438.000000,,2013-03-03 20:53:00,
2013-03-03 16:02:00,63.0,49.0,-100.00,NNW,335,10.0,20.0,61,0.00,,,0.29,438.000000,,2013-03-03 21:02:00,
2013-03-03 16:12:00,63.0,49.0,-100.00,NNW,335,10.0,20.0,61,0.00,,,0.29,438.000000,,2013-03-03 21:12:00,
2013-03-03 16:22:00,63.0,49.0,-100.00,NNW,335,10.0,20.0,61,0.00,,,0.29,438.000000,,2013-03-03 21:22:00,
2013-03-03 16:32:00,63.0,49.0,-100.00,NNW,335,10.0,20.0,61,0.00,,,0.29,438.000000,,2013-03-03 21:32:00,
2013-03-03 16:52:00,61.0,47.0,-100.00,NNW,331,10.0,18.0,61,0.00,,,0.29,329.000000,,2013-03-03 21:52:00,
2013-03-03 17:02:00,61.0,47.0,-100.00,NNW,331,10.0,18.0,61,0.00,,,0.29,329.000000,,2013-03-03 22:02:00,
2013-03-03 17:11:00,61.0,47.0,-100.00,NNW,331,10.0,18.0,61,0.00,,,0.29,329.000000,,2013-03-03 22:11:00,
2013-03-03 17:22:00,61.0,47.0,-100.00,NNW,331,10.0,18.0,61,0.00,,,0.29,329.000000,,2013-03-03 22:22:00,
2013-03-03 17:32:00,61.0,47.0,-100.00,NNW,331,10.0,18.0,61,0.00,,,0.29,329.000000,,2013-03-03 22:32:00,
2013-03-03 18:02:00,59.0,48.0,-100.00,NW,318,8.0,17.0,66,0.00,,,0.29,117.000000,,2013-03-03 23:02:00,
2013-03-03 18:11:00,59.0,48.0,-100.00,NW,318,8.0,17.0,66,0.00,,,0.29,117.000000,,2013-03-03 23:11:00,
2013-03-03 18:22:00,59.0,48.0,-100.00,NW,318,8.0,17.0,66,0.00,,,0.29,117.000000,,2013-03-03 23:22:00,
2013-03-03 18:32:00,59.0,48.0,-100.00,NW,318,8.0,17.0,66,0.00,,,0.29,117.000000,,2013-03-03 23:32:00,
2013-03-03 18:52:00,59.0,48.0,-100.00,NW,314,7.0,17.0,67,0.00,,,0.29,27.000000,,2013-03-03 23:52:00,
2013-03-03 19:02:00,59.0,48.0,-100.00,NW,314,7.0,17.0,67,0.00,,,0.29,27.000000,,2013-03-04 00:02:00,
2013-03-03 19:11:00,59.0,48.0,-100.00,NW,314,7.0,17.0,67,0.00,,,0.29,27.000000,,2013-03-04 00:11:00,
2013-03-03 19:22:00,59.0,48.0,-100.00,NW,314,7.0,17.0,67,0.00,,,0.29,27.000000,,2013-03-04 00:22:00,
2013-03-03 19:32:00,59.0,48.0,-100.00,NW,314,7.0,17.0,67,0.00,,,0.29,27.000000,,2013-03-04 00:32:00,
2013-03-03 20:02:00,61.0,49.0,-100.00,NW,319,8.0,19.0,65,0.00,,,-99.99,0.000000,,2013-03-04 01:02:00,
2013-03-03 20:12:00,61.0,49.0,-100.00,NW,319,8.0,19.0,65,0.00,,,-99.99,0.000000,,2013-03-04 01:12:00,
2013-03-03 20:22:00,61.0,49.0,-100.00,NW,319,8.0,19.0,65,0.00,,,-99.99,0.000000,,2013-03-04 01:22:00,
2013-03-03 20:32:00,61.0,49.0,-100.00,NW,319,8.0,19.0,65,0.00,,,-99.99,0.000000,,2013-03-04 01:32:00,
2013-03-03 20:52:00,60.0,49.0,-100.00,NNW,332,7.0,19.0,68,0.00,,,0.29,0.000000,,2013-03-04 01:52:00,
2013-03-03 21:01:00,60.0,49.0,-100.00,NNW,332,7.0,19.0,68,0.00,,,0.29,0.000000,,2013-03-04 02:01:00,
2013-03-03 21:11:00,60.0,49.0,-100.00,NNW,332,7.0,19.0,68,0.00,,,0.29,0.000000,,2013-03-04 02:11:00,
2013-03-03 21:22:00,60.0,49.0,-100.00,NNW,332,7.0,19.0,68,0.00,,,0.29,0.000000,,2013-03-04 02:22:00,
2013-03-03 21:32:00,60.0,49.0,-100.00,NNW,332,7.0,19.0,68,0.00,,,0.29,0.000000,,2013-03-04 02:32:00,
2013-03-03 21:53:00,61.0,43.0,-100.00,NW,315,8.0,16.0,52,0.00,,,0.29,0.000000,,2013-03-04 02:53:00,
2013-03-03 22:02:00,61.0,43.0,-100.00,NW,315,8.0,16.0,52,0.00,,,0.29,0.000000,,2013-03-04 03:02:00,
2013-03-03 22:11:00,61.0,43.0,-100.00,NW,315,8.0,16.0,52,0.00,,,0.29,0.000000,,2013-03-04 03:11:00,
2013-03-03 22:22:00,61.0,43.0,-100.00,NW,315,8.0,16.0,52,0.00,,,0.29,0.000000,,2013-03-04 03:22:00,
2013-03-03 22:32:00,61.0,43.0,-100.00,NW,315,8.0,16.0,52,0.00,,,0.29,0.000000,,2013-03-04 03:32:00,
2013-03-03 22:53:00,61.0,43.0,-100.00,NW,319,8.0,18.0,52,0.00,,,0.29,0.000000,,2013-03-04 03:53:00,
2013-03-03 23:02:00,61.0,43.0,-100.00,NW,319,8.0,18.0,52,0.00,,,0.29,0.000000,,2013-03-04 04:02:00,
2013-03-03 23:11:00,61.0,43.0,-100.00,NW,319,8.0,18.0,52,0.00,,,0.29,0.000000,,2013-03-04 04:11:00,
2013-03-03 23:22:00,61.0,43.0,-100.00,NW,319,8.0,18.0,52,0.00,,,0.29,0.000000,,2013-03-04 04:22:00,
2013-03-03 23:32:00,61.0,43.0,-100.00,NW,319,8.0,18.0,52,0.00,,,0.29,0.000000,,2013-03-04 04:32:00,
2013-03-03 23:52:00,61.0,44.0,-100.00,NNW,327,8.0,17.0,54,0.00,,,0.29,0.000000,,2013-03-04 04:52:00,